Home > Weather > Richmond > Past weeks

Flag for USA Weather for the Past 2 Weeks in Richmond, Virginia, USA

Now
55 °F

Light rain. More clouds than sun.


Feels Like: 54 °F
Forecast: 53 / 74 °F
Wind: 6 mph from South

Location: Richmond International Airport

Current Time: May 1, 2016 at 10:20:20 AM

Latest Report: May 1, 2016 at 9:54 AM


Visibility: 10 mi

Pressure: 30.11 "Hg

Humidity: 96%

Dew Point: 54 °F

Location of RichmondLocation

Historic Weather in Richmond — Graph

°F

Richmond Temperature Yesterday

Maximum temperature yesterday: 59 °F (at 2:54 PM)
Minimum temperature yesterday: 52 °F (at 6:54 AM)
Average temperature yesterday: 55 °F

High & Low Weather Summary for the Past Weeks

 TemperatureHumidityPressure
High86 °F (Apr 18, 3:54 PM)100% (Apr 23, 12:54 AM)30.48 "Hg (Apr 23, 12:54 AM)
Low38 °F (Apr 17, 2:54 AM)17% (Apr 18, 4:54 PM)29.73 "Hg (Apr 26, 5:54 PM)
Average62 °F65%30.07 "Hg
* Reported Apr 16 8:54 AM — May 1 8:54 AM, Richmond, Weather by CustomWeather, © 2016

Note: Actual official high and low records may vary slightly from our data, if they occured in-between our weather recording intervals... More about our weather records

Advertising

Richmond Weather History for the Previous 24 Hours

Scroll right to see more
 ConditionsComfort  
Time TempWeatherWind HumidityBarometerVisibility
8:54 AM
Sun, May 1
54 °FLight rain. Mostly cloudy.8 mph97%30.12 "Hg10 mi
7:54 AM53 °FLight rain. Mostly cloudy.7 mph96%30.13 "Hg10 mi
6:54 AM52 °FMostly cloudy.6 mph100%30.14 "Hg10 mi
5:54 AM52 °FRain. Mostly cloudy.3 mph97%30.14 "Hg9 mi
4:54 AM52 °FRain. Fog.6 mph97%30.16 "Hg4 mi
3:54 AM52 °FHeavy rain. Fog.No wind93%30.18 "Hg3 mi
2:54 AM53 °FOvercast.3 mph89%30.15 "Hg10 mi
1:54 AM53 °FMostly cloudy.3 mph89%30.16 "Hg10 mi
12:54 AM53 °FOvercast.12 mph89%30.17 "Hg10 mi
11:54 PM
Sat, Apr 30
54 °FOvercast.8 mph90%30.20 "Hg10 mi
10:54 PM54 °FOvercast.6 mph90%30.22 "Hg10 mi
9:54 PM54 °FOvercast.5 mph90%30.21 "Hg10 mi
8:54 PM55 °FLight rain. Mostly cloudy.6 mph87%30.20 "Hg10 mi
7:54 PM56 °FMostly cloudy.7 mph81%30.20 "Hg10 mi
6:54 PM56 °FOvercast.8 mph81%30.20 "Hg10 mi
5:54 PM58 °FMore clouds than sun.9 mph75%30.19 "Hg10 mi
4:54 PM58 °FOvercast.8 mph78%30.19 "Hg10 mi
3:54 PM59 °FOvercast.5 mph69%30.19 "Hg10 mi
2:54 PM59 °FMostly cloudy.7 mph72%30.19 "Hg10 mi
1:54 PM58 °FMostly cloudy.9 mph75%30.20 "Hg10 mi
12:54 PM58 °FMore clouds than sun.5 mph72%30.20 "Hg10 mi
11:54 AM58 °FMore clouds than sun.8 mph72%30.19 "Hg10 mi
10:54 AM56 °FCloudy.8 mph81%30.19 "Hg10 mi
Weather by CustomWeather, © 2016

See weather overviewHow to use our weather pages